[[{"header":{"parameterUnit":"m.s-1","parameterCategory":2,"la1":30.2991,"la2":30.254,"lo1":-89.0895,"lo2":-89.0444,"dy":0.0017,"dx":0.0017,"nx":28,"ny":28,"refTime":"2024-04-02T21:00:00:Z","depth":"0","parameterNumber":2,"parameterNumberName":"U-component_of_CURRENTS"},"data":[0,0,0,0,0,0,0,0,0,0,0,0,0,0,0,0,0,0,0,0,0,0,0,0,0,0,0,0,0,0,0,0,0,0,0,0,0,0,0,0,0,0,0,0,0,0,0,0,0,0,0,0,0,0,0,0,0,0,0.1488,0.1488,0,0.1529,0.153,0.153,0.1557,0.1558,0.1558,0.1558,0.1517,0.1515,0.1514,0,0,0,0,0,0,0,0,0,0,0,0,0,0.1398,0.1399,0.1487,0.1488,0.1489,0.1529,0.153,0.153,0.1557,0.1558,0.1558,0.1559,0.1517,0.1515,0.1514,0,0,0,0,0,0,0,0,0,0,0,0,0,0.1436,0.14,0.1487,0.1509,0.1511,0.1529,0.153,0.153,0.1557,0.1558,0.1558,0.1559,0.1518,0.1516,0.1513,0.149,0,0,0.1507,0.1506,0,0,0,0,0,0,0,0,0.1434,0.1439,0.1505,0.1507,0.151,0.154,0.1483,0.1513,0.1557,0.1538,0.1558,0.1559,0.1518,0.1516,0.1521,0.1488,0.1486,0.1507,0.1505,0.1504,0.1504,0,0,0,0,0,0,0,0.1431,0.1437,0.1502,0.1506,0.1509,0.1505,0.1511,0.1489,0.1521,0.1539,0.1542,0.155,0.1518,0.1523,0.152,0.1485,0.1507,0.1505,0.1504,0.1503,0.146,0.146,0,0,0,0,0,0,0.1431,0.1435,0.1501,0.1504,0.1475,0.1506,0.1513,0.1529,0.1523,0.1524,0.1549,0.1551,0.1526,0.1522,0.1518,0.1521,0.1504,0.1502,0.1501,0.146,0.146,0.1461,0,0,0,0,0,0,0.1429,0.1437,0.1499,0.1471,0.1479,0.1508,0.1525,0.1529,0.1542,0.1532,0.1531,0.1559,0.1527,0.1521,0.1507,0.1518,0.1501,0.15,0.146,0.146,0.146,0.1506,0,0,0,0,0,0,0.1427,0.1436,0.1448,0.1472,0.1481,0.1517,0.1524,0.153,0.1546,0.1549,0.1539,0.1536,0.1527,0.151,0.1504,0.1515,0.1498,0.146,0.146,0.146,0.1504,0.1508,0.1511,0,0,0,0,0,0.1423,0.1438,0.1448,0.1456,0.1496,0.1518,0.1522,0.1542,0.1546,0.1555,0.1547,0.1537,0.1508,0.1508,0.1502,0.1512,0.146,0.146,0.146,0.1503,0.1507,0.1511,0,0,0,0,0,0,0.1406,0.1443,0.1455,0.148,0.1501,0.1523,0.1534,0.1544,0.1546,0.1545,0.1533,0.1529,0.1522,0.1506,0.1506,0.15,0.1484,0.1483,0.1518,0.1522,0.1525,0.1539,0.1496,0,0,0,0,0,0.1408,0.1427,0.1459,0.1478,0.1489,0.151,0.1522,0.1535,0.1541,0.1544,0.1535,0.1524,0.1516,0.1511,0.1497,0.1488,0.152,0.1491,0.1495,0.1498,0.1504,0.1562,0.1572,0.1462,0.1462,0.1462,0,0,0.1404,0.1428,0.1438,0.1475,0.1491,0.1506,0.1519,0.1538,0.1547,0.1535,0.1535,0.1529,0.1515,0.1513,0.1508,0.1503,0.1551,0.1498,0.1501,0.1505,0.1564,0.1575,0.1585,0.1462,0.1462,0.1462,0,0,0.1403,0.143,0.1444,0.1462,0.1492,0.1505,0.1512,0.1534,0.1544,0.1543,0.1541,0.1546,0.1523,0.1529,0.1526,0.1534,0.1564,0.1528,0.1559,0.1615,0.1626,0.1635,0.172,0.1736,0.1533,0.1533,0.1534,0,0.1396,0.1425,0.145,0.1467,0.1483,0.1504,0.1519,0.1528,0.154,0.1555,0.1545,0.1554,0.1534,0.1557,0.156,0.1543,0.1593,0.1548,0.1623,0.1633,0.1641,0.1726,0.1743,0.1536,0.1535,0.1535,0.1535,0,0.1407,0.1428,0.1438,0.1467,0.1484,0.1502,0.1522,0.1536,0.1545,0.1562,0.1587,0.1578,0.1596,0.1586,0.157,0.1624,0.1647,0.1622,0.162,0.1656,0.1742,0.176,0.1539,0.1538,0.1537,0.1537,0,0,0.14,0.1438,0.1442,0.1458,0.1489,0.1507,0.1523,0.1557,0.1591,0.1595,0.1645,0.1628,0.1651,0.1649,0.1647,0.1682,0.1785,0.1681,0.1683,0.1779,0.195,0.1974,0.1996,0.1783,0.1785,0.1787,0.1997,0,0.1403,0.143,0.145,0.1475,0.1493,0.152,0.154,0.1571,0.1604,0.1654,0.1669,0.1707,0.1669,0.1698,0.1728,0.177,0.1829,0.1733,0.1888,0.1893,0.1921,0.2015,0.2013,0.2199,0.2014,0.2017,0.2019,0,0.1412,0.1431,0.1453,0.1495,0.1508,0.1522,0.1584,0.1607,0.1675,0.1708,0.1761,0.1789,0.185,0.1807,0.1924,0.1873,0.1917,0.1944,0.1953,0.197,0.195,0.2125,0.2238,0.2238,0.2046,0.2044,0.2042,0,0.1404,0.1438,0.1457,0.1469,0.1512,0.1533,0.156,0.1624,0.1674,0.1761,0.1826,0.1893,0.1956,0.2008,0.2064,0.2014,0.2203,0.2143,0.2216,0.2219,0.2243,0.2244,0.2381,0.2237,0.2236,0.2236,0.2235,0,0.1408,0.1426,0.1454,0.1466,0.1502,0.1533,0.1593,0.1636,0.173,0.1802,0.1861,0.1949,0.201,0.2116,0.2137,0.2258,0.2276,0.2258,0.2282,0.226,0.226,0.2276,0.2235,0.2243,0.2242,0.224,0.2239,0,0.14,0.1418,0.1443,0.1483,0.1499,0.1524,0.1609,0.1661,0.1751,0.1858,0.1897,0.204,0.2179,0.2254,0.2373,0.2378,0.243,0.2495,0.2481,0.2498,0.2528,0.2488,0.2483,0.241,0.2622,0.2624,0.2626,0,0.1401,0.1408,0.1446,0.1463,0.1481,0.1528,0.1564,0.1656,0.1722,0.1905,0.1961,0.2147,0.2266,0.2485,0.2546,0.2658,0.2536,0.27,0.2577,0.257,0.2544,0.236,0.2282,0.2649,0.265,0.2652,0.2653,0,0.1396,0.1403,0.1422,0.1455,0.1487,0.153,0.1593,0.1653,0.1766,0.1878,0.2042,0.2165,0.2404,0.2544,0.2703,0.2741,0.2606,0.273,0.2731,0.2595,0.2397,0.2325,0.2485,0.2665,0.2664,0.2663,0.2662,0.2662,0.1386,0.1394,0.1413,0.1445,0.1478,0.1517,0.1542,0.1633,0.1741,0.1899,0.204,0.2223,0.2499,0.2732,0.2747,0.2842,0.27,0.2818,0.2785,0.2609,0.2481,0.2679,0.2862,0.2862,0.2862,0.2862,0.2862,0,0.1369,0.1378,0.1405,0.1431,0.1446,0.1479,0.1547,0.1578,0.1674,0.1872,0.2022,0.236,0.2566,0.2743,0.2963,0.2938,0.2726,0.2887,0.2647,0.2575,0.2811,0.2756,0.2915,0.2915,0.2915,0.2915,0.2915,0.2915,0.1357,0.1366,0.138,0.1387,0.1403,0.1409,0.1432,0.1501,0.1629,0.1862,0.2075,0.2263,0.267,0.3,0.3099,0.3022,0.2785,0.2693,0.2605,0.283,0.282,0.281,0.2751,0.2906,0.2906,0.2284,0.228,0.2277]},{"header":{"parameterUnit":"m.s-1","parameterCategory":2,"la1":30.2991,"la2":30.254,"lo1":-89.0895,"lo2":-89.0444,"dy":0.0017,"dx":0.0017,"nx":28,"ny":28,"refTime":"2024-04-02T21:00:00:Z","depth":"0","parameterNumber":3,"parameterNumberName":"V-component_of_CURRENTS"},"data":[0,0,0,0,0,0,0,0,0,0,0,0,0,0,0,0,0,0,0,0,0,0,0,0,0,0,0,0,0,0,0,0,0,0,0,0,0,0,0,0,0,0,0,0,0,0,0,0,0,0,0,0,0,0,0,0,0,0,-0.0144,-0.0145,0,-0.0215,-0.0215,-0.0216,-0.0278,-0.0279,-0.0279,-0.028,-0.0367,-0.0369,-0.0371,0,0,0,0,0,0,0,0,0,0,0,0,0,-0.0081,-0.0082,-0.0144,-0.0145,-0.0146,-0.0214,-0.0216,-0.0217,-0.0278,-0.0279,-0.0279,-0.028,-0.0367,-0.0369,-0.0371,0,0,0,0,0,0,0,0,0,0,0,0,0,-0.0127,-0.0082,-0.0144,-0.0184,-0.0188,-0.0214,-0.0216,-0.0217,-0.0278,-0.0279,-0.028,-0.0281,-0.0366,-0.0368,-0.0371,-0.0369,0,0,-0.0379,-0.038,0,0,0,0,0,0,0,0,-0.0124,-0.0129,-0.0177,-0.0181,-0.0186,-0.0238,-0.0225,-0.0268,-0.0278,-0.0245,-0.028,-0.0281,-0.0324,-0.033,-0.0342,-0.0373,-0.0376,-0.0379,-0.0381,-0.0382,-0.0383,0,0,0,0,0,0,0,-0.0121,-0.0126,-0.0173,-0.0178,-0.0183,-0.0205,-0.0212,-0.0234,-0.0279,-0.0248,-0.0252,-0.0258,-0.0327,-0.034,-0.0345,-0.0378,-0.0379,-0.0381,-0.0383,-0.0384,-0.045,-0.045,0,0,0,0,0,0,-0.0108,-0.0123,-0.0171,-0.0175,-0.0156,-0.0205,-0.0213,-0.0221,-0.0279,-0.0288,-0.0257,-0.0261,-0.0335,-0.0342,-0.0348,-0.037,-0.0382,-0.0384,-0.0386,-0.045,-0.045,-0.045,0,0,0,0,0,0,-0.0107,-0.0112,-0.0168,-0.015,-0.0159,-0.0205,-0.0213,-0.0222,-0.0239,-0.0286,-0.0296,-0.0266,-0.0336,-0.0345,-0.0376,-0.0373,-0.0386,-0.0388,-0.045,-0.045,-0.045,-0.0399,0,0,0,0,0,0,-0.0105,-0.0111,-0.0111,-0.0149,-0.0159,-0.0178,-0.0212,-0.0222,-0.0241,-0.0246,-0.0296,-0.0305,-0.0337,-0.0372,-0.0379,-0.0376,-0.039,-0.0449,-0.045,-0.045,-0.04,-0.0397,-0.0395,0,0,0,0,0,-0.0102,-0.0095,-0.0111,-0.0116,-0.0158,-0.0177,-0.0184,-0.0221,-0.024,-0.0241,-0.0284,-0.0304,-0.0379,-0.0374,-0.0382,-0.038,-0.0449,-0.045,-0.045,-0.0401,-0.0398,-0.0395,0,0,0,0,0,0,-0.0066,-0.0101,-0.012,-0.0124,-0.0147,-0.0188,-0.0191,-0.0216,-0.025,-0.0256,-0.0305,-0.0316,-0.0345,-0.0369,-0.0362,-0.0402,-0.0418,-0.042,-0.0378,-0.0375,-0.0372,-0.0356,-0.0392,0,0,0,0,0,-0.0057,-0.0064,-0.0099,-0.0102,-0.0111,-0.015,-0.0163,-0.0185,-0.022,-0.0236,-0.0274,-0.0315,-0.035,-0.0367,-0.0401,-0.0416,-0.0439,-0.0422,-0.0419,-0.0417,-0.041,-0.0457,-0.0458,-0.0452,-0.0452,-0.0452,0,0,-0.0044,-0.0063,-0.0068,-0.0094,-0.0117,-0.0123,-0.016,-0.0172,-0.0181,-0.0238,-0.0264,-0.0306,-0.0354,-0.0379,-0.0393,-0.0399,-0.0426,-0.0417,-0.0414,-0.0409,-0.0458,-0.0459,-0.0459,-0.0452,-0.0452,-0.0452,0,0,-0.0015,-0.0037,-0.0032,-0.0047,-0.0073,-0.0097,-0.0098,-0.0137,-0.0159,-0.0183,-0.0233,-0.0274,-0.0319,-0.0359,-0.0384,-0.0383,-0.0412,-0.0393,-0.0363,-0.0409,-0.041,-0.0411,-0.0417,-0.0419,-0.0389,-0.0389,-0.0389,0,0.0002,0.0001,-0.0031,-0.0028,-0.0039,-0.0082,-0.0077,-0.0101,-0.0147,-0.0164,-0.0183,-0.0269,-0.031,-0.0351,-0.0355,-0.0376,-0.0395,-0.037,-0.0404,-0.0406,-0.0408,-0.0415,-0.0418,-0.0387,-0.0387,-0.0387,-0.0388,0,0.0033,0.0032,0.0036,0.002,0.0008,0.0006,-0.003,-0.0047,-0.0079,-0.0111,-0.0157,-0.0219,-0.027,-0.0291,-0.0323,-0.0358,-0.0362,-0.0396,-0.0408,-0.0405,-0.0413,-0.0417,-0.0383,-0.0384,-0.0385,-0.0386,0,0,0.0062,0.0058,0.0057,0.0061,0.0032,0.0027,0.0015,-0.0014,-0.002,-0.0074,-0.0092,-0.0167,-0.0205,-0.0236,-0.0286,-0.0327,-0.0353,-0.0361,-0.0364,-0.0358,-0.0426,-0.0413,-0.0417,-0.0396,-0.0397,-0.0398,-0.0417,0,0.0091,0.0114,0.0098,0.0113,0.0119,0.008,0.0074,0.0044,0.0011,-0.0014,-0.0088,-0.0121,-0.0182,-0.0201,-0.0256,-0.033,-0.0365,-0.0343,-0.0439,-0.044,-0.0423,-0.0422,-0.0411,-0.0427,-0.0421,-0.0422,-0.0423,0,0.012,0.0131,0.0155,0.0159,0.0158,0.0158,0.0139,0.0129,0.0082,0.0057,0.0004,-0.0046,-0.0113,-0.0164,-0.0285,-0.0268,-0.0339,-0.0398,-0.0401,-0.041,-0.0436,-0.0436,-0.0435,-0.06,-0.0429,-0.0429,-0.0428,0,0.015,0.0167,0.0189,0.0189,0.0187,0.0187,0.0179,0.0146,0.0159,0.0104,0.0114,0.0011,-0.0015,-0.0136,-0.0249,-0.0271,-0.0371,-0.0419,-0.0471,-0.0469,-0.0489,-0.0488,-0.0653,-0.0504,-0.0504,-0.0504,-0.0504,0,0.018,0.0196,0.0208,0.0218,0.0249,0.0227,0.0251,0.0228,0.0226,0.0255,0.0156,0.017,-0.0011,-0.0084,-0.0216,-0.0338,-0.0347,-0.0458,-0.048,-0.0468,-0.0465,-0.0633,-0.0718,-0.0505,-0.0505,-0.0505,-0.0505,0,0.0204,0.0211,0.0242,0.0256,0.0265,0.0283,0.0319,0.0348,0.0328,0.0367,0.0363,0.0297,0.0197,0.0033,-0.0143,-0.0268,-0.0488,-0.0446,-0.0395,-0.0412,-0.0626,-0.0706,-0.0861,-0.0938,-0.0513,-0.0513,-0.0513,0,0.0218,0.0236,0.0277,0.0312,0.032,0.0352,0.0389,0.0392,0.0444,0.0457,0.05,0.0424,0.0394,0.0155,-0.0092,-0.0309,-0.047,-0.0437,-0.0493,-0.0631,-0.0738,-0.0794,-0.0853,-0.0489,-0.0489,-0.0489,-0.0489,0,0.0246,0.026,0.0294,0.0373,0.0421,0.0485,0.0544,0.0608,0.0627,0.067,0.0728,0.0707,0.0474,0.026,-0.0043,-0.0209,-0.055,-0.0438,-0.0616,-0.0757,-0.0796,-0.0882,-0.0458,-0.0487,-0.0487,-0.0487,-0.0487,-0.0487,0.0271,0.0311,0.0372,0.0447,0.0515,0.0624,0.0699,0.0785,0.0886,0.0984,0.0927,0.0942,0.0603,0.0187,-0.0078,-0.0533,-0.0548,-0.0679,-0.0766,-0.0811,-0.0892,-0.0438,-0.0475,-0.0475,-0.0475,-0.0475,-0.0475,0,0.0314,0.0372,0.0448,0.0555,0.0655,0.0677,0.0816,0.0916,0.106,0.1152,0.1201,0.1076,0.0635,0.0193,-0.0426,-0.0788,-0.0936,-0.0992,-0.11,-0.1148,-0.0778,-0.0786,-0.0849,-0.0849,-0.0849,-0.0849,-0.0849,-0.0849,0.0342,0.0434,0.0486,0.0666,0.0746,0.0905,0.0997,0.1146,0.1261,0.1422,0.1474,0.1476,0.1175,-0.007,-0.0916,-0.1129,-0.1383,-0.1437,-0.1574,-0.1357,-0.1336,-0.1315,-0.1346,-0.1526,-0.1526,-0.1908,-0.1912,-0.1915]}],[{"header":{"parameterUnit":"m.s-1","parameterCategory":2,"la1":30.2991,"la2":30.254,"lo1":-89.0895,"lo2":-89.0444,"dy":0.0017,"dx":0.0017,"nx":28,"ny":28,"refTime":"2024-04-02T21:00:00:Z","depth":"2","parameterNumber":2,"parameterNumberName":"U-component_of_CURRENTS"},"data":[0,0,0,0,0,0,0,0,0,0,0,0,0,0,0,0,0,0,0,0,0,0,0,0,0,0,0,0,0,0,0,0,0,0,0,0,0,0,0,0,0,0,0,0,0,0,0,0,0,0,0,0,0,0,0,0,0,0,0.13,0.13,0,0.1342,0.1343,0.1343,0.1375,0.1376,0.1376,0.1377,0.1344,0.1343,0.1342,0,0,0,0,0,0,0,0,0,0,0,0,0,0.1212,0.1214,0.13,0.13,0.1301,0.1342,0.1343,0.1343,0.1375,0.1376,0.1376,0.1377,0.1345,0.1343,0.1341,0,0,0,0,0,0,0,0,0,0,0,0,0,0.125,0.1214,0.1299,0.1324,0.1326,0.1342,0.1343,0.1343,0.1375,0.1376,0.1377,0.1377,0.1345,0.1343,0.1341,0.1314,0,0,0.1335,0.1334,0,0,0,0,0,0,0,0,0.1248,0.1253,0.1319,0.1322,0.1325,0.1356,0.13,0.133,0.1375,0.1354,0.1377,0.1378,0.1342,0.134,0.1345,0.1312,0.1311,0.1335,0.1334,0.1333,0.1332,0,0,0,0,0,0,0,0.1245,0.1251,0.1314,0.132,0.1324,0.1321,0.1327,0.1306,0.134,0.1356,0.1359,0.1367,0.1343,0.1347,0.1344,0.1311,0.1335,0.1333,0.1332,0.1331,0.1296,0.1297,0,0,0,0,0,0,0.1246,0.1249,0.1313,0.1316,0.129,0.1322,0.1329,0.1344,0.1342,0.1344,0.1366,0.1368,0.135,0.1346,0.1343,0.1351,0.1333,0.1331,0.133,0.1296,0.1296,0.1297,0,0,0,0,0,0,0.1244,0.1251,0.1311,0.1284,0.1292,0.1323,0.1339,0.1344,0.1362,0.1351,0.1351,0.1381,0.135,0.1346,0.1335,0.1348,0.133,0.1328,0.1296,0.1296,0.1297,0.1341,0,0,0,0,0,0,0.1241,0.125,0.1262,0.1285,0.1294,0.1332,0.1339,0.1345,0.1366,0.1369,0.1363,0.136,0.135,0.1338,0.1333,0.1345,0.1327,0.1295,0.1296,0.1296,0.1339,0.1343,0.1346,0,0,0,0,0,0.1238,0.1252,0.1263,0.127,0.1309,0.1332,0.1337,0.1359,0.1366,0.1376,0.137,0.1361,0.1338,0.1337,0.1331,0.1343,0.1295,0.1296,0.1296,0.1338,0.1342,0.1346,0,0,0,0,0,0,0.1223,0.1258,0.1269,0.1295,0.1317,0.1339,0.1352,0.1363,0.1368,0.137,0.1358,0.1355,0.1352,0.1337,0.1335,0.1334,0.1317,0.1317,0.1351,0.1355,0.1358,0.1373,0.1325,0,0,0,0,0,0.1224,0.1243,0.1274,0.1294,0.1307,0.1329,0.1342,0.1357,0.1364,0.1369,0.1362,0.1354,0.1347,0.1344,0.133,0.1323,0.1354,0.1329,0.1332,0.1335,0.1343,0.14,0.141,0.1299,0.1299,0.1299,0,0,0.1221,0.1245,0.1255,0.1291,0.131,0.1325,0.1339,0.1362,0.1371,0.136,0.1364,0.136,0.1346,0.1346,0.1343,0.1338,0.1388,0.1336,0.1339,0.1345,0.1402,0.1413,0.1423,0.1299,0.1299,0.1299,0,0,0.1222,0.125,0.1264,0.1283,0.1315,0.1328,0.1337,0.1361,0.1373,0.1374,0.1373,0.1381,0.136,0.1366,0.1362,0.1373,0.1401,0.1368,0.1401,0.1457,0.1467,0.1476,0.1557,0.1573,0.1374,0.1374,0.1374,0,0.1218,0.1246,0.1271,0.1289,0.1306,0.133,0.1346,0.1356,0.1371,0.1387,0.1379,0.1391,0.1372,0.1395,0.1398,0.1382,0.1431,0.1389,0.1464,0.1474,0.1483,0.1563,0.158,0.1376,0.1376,0.1376,0.1376,0,0.123,0.1252,0.1263,0.1292,0.1311,0.1331,0.1351,0.1367,0.138,0.1397,0.1425,0.1416,0.1437,0.1427,0.1411,0.1465,0.1488,0.1462,0.146,0.1497,0.1579,0.1596,0.138,0.1379,0.1378,0.1378,0,0,0.1225,0.1263,0.1269,0.1286,0.1318,0.1337,0.1353,0.1389,0.1425,0.1432,0.1484,0.1468,0.1494,0.1492,0.149,0.1525,0.1626,0.1524,0.1526,0.1616,0.1786,0.1787,0.1806,0.1624,0.1627,0.1629,0.1828,0,0.123,0.1259,0.1279,0.1305,0.1325,0.1353,0.1373,0.1405,0.144,0.1492,0.1508,0.1548,0.1511,0.1543,0.1572,0.1612,0.1669,0.1576,0.1725,0.173,0.1736,0.1824,0.1678,0.1841,0.1845,0.1848,0.185,0,0.1242,0.1261,0.1286,0.1328,0.1342,0.1358,0.1423,0.1446,0.1516,0.155,0.1605,0.1634,0.1695,0.1653,0.1766,0.1717,0.1759,0.1783,0.1791,0.1787,0.1762,0.1797,0.1872,0.1879,0.1877,0.1875,0.1873,0,0.1236,0.1271,0.1292,0.1305,0.1349,0.1373,0.1402,0.1467,0.1517,0.1607,0.1671,0.1739,0.1803,0.1853,0.1903,0.1856,0.2035,0.1977,0.2025,0.2027,0.1927,0.1915,0.2068,0.2068,0.2068,0.2067,0.2067,0,0.1242,0.1262,0.1292,0.1306,0.1346,0.1377,0.1441,0.1485,0.1579,0.165,0.171,0.1794,0.1856,0.1957,0.1974,0.2077,0.2106,0.2065,0.2085,0.194,0.1928,0.196,0.1944,0.2075,0.2073,0.2072,0.207,0,0.1237,0.1256,0.1284,0.1327,0.1344,0.1374,0.146,0.1513,0.1603,0.1708,0.1748,0.1883,0.2011,0.2083,0.2194,0.219,0.2263,0.2286,0.2128,0.2124,0.2205,0.219,0.2379,0.2381,0.2382,0.2384,0.2385,0,0.124,0.1249,0.1291,0.1311,0.1332,0.1383,0.1422,0.1512,0.1576,0.1751,0.1803,0.1978,0.208,0.2275,0.2307,0.2398,0.2361,0.23,0.2161,0.2241,0.2241,0.2222,0.2205,0.2064,0.2062,0.2061,0.206,0,0.1237,0.1247,0.1268,0.1306,0.1342,0.1387,0.1452,0.1508,0.1618,0.1725,0.1875,0.1982,0.2177,0.2218,0.2342,0.2347,0.2268,0.2277,0.2431,0.1995,0.1956,0.1951,0.1942,0.2048,0.2049,0.205,0.2051,0.2051,0.1231,0.1241,0.1264,0.13,0.1336,0.1374,0.1402,0.1487,0.1588,0.1723,0.1852,0.1967,0.2061,0.2182,0.2169,0.2164,0.2292,0.2185,0.2184,0.2185,0.21,0.2064,0.2164,0.2166,0.2167,0.2168,0.217,0,0.1216,0.1229,0.1258,0.1289,0.1303,0.1341,0.1407,0.1426,0.1512,0.1663,0.1789,0.1752,0.1847,0.1918,0.1917,0.1962,0.1881,0.1872,0.1739,0.1757,0.1771,0.1656,0.1607,0.1605,0.1602,0.16,0,0,0.1207,0.1217,0.123,0.1241,0.1262,0.1269,0.1291,0.1336,0.1424,0.1497,0.1569,0.1771,0.1887,0.1704,0.1722,0.1659,0.1671,0.1602,0.2069,0.1931,0.1941,0.1992,0.1843,0,0,0,0,0]},{"header":{"parameterUnit":"m.s-1","parameterCategory":2,"la1":30.2991,"la2":30.254,"lo1":-89.0895,"lo2":-89.0444,"dy":0.0017,"dx":0.0017,"nx":28,"ny":28,"refTime":"2024-04-02T21:00:00:Z","depth":"2","parameterNumber":3,"parameterNumberName":"V-component_of_CURRENTS"},"data":[0,0,0,0,0,0,0,0,0,0,0,0,0,0,0,0,0,0,0,0,0,0,0,0,0,0,0,0,0,0,0,0,0,0,0,0,0,0,0,0,0,0,0,0,0,0,0,0,0,0,0,0,0,0,0,0,0,0,-0.0064,-0.0065,0,-0.0135,-0.0136,-0.0137,-0.02,-0.02,-0.0201,-0.0201,-0.0295,-0.0297,-0.0299,0,0,0,0,0,0,0,0,0,0,0,0,0,-0.0004,-0.0005,-0.0064,-0.0065,-0.0066,-0.0135,-0.0136,-0.0137,-0.0199,-0.02,-0.0201,-0.0202,-0.0295,-0.0297,-0.0299,0,0,0,0,0,0,0,0,0,0,0,0,0,-0.0049,-0.0005,-0.0064,-0.0104,-0.0108,-0.0135,-0.0136,-0.0137,-0.0199,-0.02,-0.0201,-0.0202,-0.0294,-0.0297,-0.03,-0.0299,0,0,-0.0309,-0.031,0,0,0,0,0,0,0,0,-0.0047,-0.0052,-0.0097,-0.0101,-0.0106,-0.0158,-0.015,-0.0192,-0.0199,-0.0166,-0.0201,-0.0202,-0.025,-0.0257,-0.0269,-0.0304,-0.0308,-0.0309,-0.0311,-0.0312,-0.0313,0,0,0,0,0,0,0,-0.0043,-0.0049,-0.0093,-0.0098,-0.0103,-0.0126,-0.0133,-0.0158,-0.0203,-0.0169,-0.0173,-0.0179,-0.0253,-0.0266,-0.0272,-0.0309,-0.0309,-0.0311,-0.0313,-0.0314,-0.0391,-0.0391,0,0,0,0,0,0,-0.003,-0.0046,-0.0091,-0.0095,-0.0077,-0.0126,-0.0135,-0.0142,-0.0203,-0.0213,-0.0178,-0.0182,-0.0261,-0.0269,-0.0276,-0.0303,-0.0312,-0.0314,-0.0316,-0.039,-0.0391,-0.0391,0,0,0,0,0,0,-0.0029,-0.0033,-0.0088,-0.0071,-0.008,-0.0126,-0.0134,-0.0143,-0.0162,-0.0209,-0.022,-0.019,-0.0262,-0.0272,-0.0308,-0.0306,-0.0316,-0.0318,-0.039,-0.039,-0.0391,-0.0341,0,0,0,0,0,0,-0.0026,-0.0032,-0.0033,-0.007,-0.008,-0.0101,-0.0133,-0.0143,-0.0164,-0.0169,-0.0222,-0.0232,-0.0264,-0.0303,-0.0311,-0.031,-0.0321,-0.039,-0.039,-0.0391,-0.0343,-0.034,-0.0338,0,0,0,0,0,-0.0024,-0.0018,-0.0033,-0.0038,-0.008,-0.01,-0.0108,-0.0145,-0.0163,-0.0167,-0.0211,-0.023,-0.0312,-0.0306,-0.0314,-0.0315,-0.0389,-0.039,-0.0391,-0.0344,-0.0341,-0.0338,0,0,0,0,0,0,0.0009,-0.0024,-0.0042,-0.0046,-0.0071,-0.0111,-0.0116,-0.0141,-0.0178,-0.0184,-0.0233,-0.0246,-0.0278,-0.0303,-0.0295,-0.034,-0.0354,-0.0356,-0.0315,-0.0313,-0.031,-0.0294,-0.0323,0,0,0,0,0,0.0017,0.0011,-0.0023,-0.0027,-0.0037,-0.0076,-0.009,-0.0113,-0.0148,-0.0166,-0.0206,-0.0248,-0.0285,-0.0304,-0.0339,-0.0359,-0.0381,-0.0366,-0.0364,-0.0361,-0.0355,-0.0401,-0.0402,-0.0393,-0.0393,-0.0393,0,0,0.0029,0.0011,0.0006,-0.002,-0.0043,-0.0051,-0.0087,-0.0101,-0.0112,-0.0169,-0.0198,-0.0241,-0.029,-0.0319,-0.0334,-0.034,-0.0372,-0.0362,-0.036,-0.0355,-0.0402,-0.0402,-0.0403,-0.0394,-0.0394,-0.0393,0,0,0.0055,0.0034,0.0038,0.0022,-0.0005,-0.003,-0.0032,-0.0072,-0.0094,-0.0123,-0.0172,-0.0213,-0.0263,-0.0303,-0.0328,-0.0331,-0.0359,-0.0342,-0.0314,-0.0359,-0.036,-0.0361,-0.0371,-0.0373,-0.0339,-0.0339,-0.0339,0,0.0069,0.0068,0.0037,0.0038,0.0027,-0.0017,-0.0014,-0.0039,-0.0088,-0.0105,-0.0125,-0.0213,-0.0255,-0.0298,-0.0303,-0.0325,-0.0344,-0.0319,-0.0355,-0.0356,-0.0358,-0.0368,-0.0372,-0.0337,-0.0337,-0.0337,-0.0337,0,0.0097,0.0095,0.0098,0.008,0.0067,0.0063,0.0027,0.0007,-0.0026,-0.0057,-0.0106,-0.0168,-0.022,-0.0243,-0.0274,-0.031,-0.0316,-0.0346,-0.0357,-0.0356,-0.0367,-0.0371,-0.0333,-0.0334,-0.0335,-0.0336,0,0,0.0122,0.0118,0.0117,0.012,0.0089,0.0083,0.0067,0.0037,0.003,-0.0027,-0.0045,-0.0122,-0.0159,-0.0191,-0.0241,-0.0281,-0.0309,-0.0314,-0.0317,-0.0313,-0.0383,-0.0376,-0.038,-0.0349,-0.035,-0.035,-0.0377,0,0.0148,0.0168,0.0153,0.0164,0.0169,0.013,0.0122,0.009,0.0056,0.0029,-0.0044,-0.0079,-0.0138,-0.0158,-0.0212,-0.0286,-0.0321,-0.0297,-0.0393,-0.0395,-0.0383,-0.0386,-0.0362,-0.0383,-0.0381,-0.0382,-0.0383,0,0.0173,0.0184,0.0205,0.0208,0.0206,0.0205,0.0184,0.0172,0.0123,0.0098,0.0043,-0.0007,-0.0075,-0.0123,-0.0245,-0.0226,-0.0297,-0.0355,-0.0358,-0.0373,-0.0398,-0.039,-0.0391,-0.039,-0.039,-0.0389,-0.0389,0,0.0202,0.0217,0.0237,0.0236,0.0233,0.0232,0.0223,0.0188,0.0199,0.0143,0.015,0.0047,0.0018,-0.01,-0.0214,-0.0233,-0.0336,-0.038,-0.0437,-0.0436,-0.0444,-0.0443,-0.0464,-0.0464,-0.0464,-0.0464,-0.0464,0,0.0229,0.0243,0.0255,0.0264,0.0293,0.027,0.0292,0.0268,0.0262,0.0287,0.0191,0.0197,0.0021,-0.0054,-0.0183,-0.0308,-0.0315,-0.0426,-0.0449,-0.0424,-0.042,-0.0456,-0.0455,-0.0465,-0.0465,-0.0465,-0.0464,0,0.0251,0.0258,0.0287,0.03,0.0308,0.0325,0.0358,0.0384,0.0362,0.0394,0.0389,0.0316,0.021,0.0049,-0.0126,-0.0245,-0.0381,-0.0424,-0.0362,-0.0378,-0.0457,-0.0453,-0.0498,-0.0498,-0.0498,-0.0498,-0.0498,0,0.0264,0.0281,0.032,0.0354,0.0361,0.0391,0.0426,0.0427,0.0472,0.0476,0.0511,0.0428,0.0384,0.0142,-0.0094,-0.0307,-0.0349,-0.0415,-0.0462,-0.0446,-0.0464,-0.046,-0.0456,-0.0444,-0.0444,-0.0444,-0.0443,0,0.0289,0.0303,0.0335,0.041,0.0456,0.0517,0.057,0.0626,0.064,0.0674,0.0712,0.0678,0.0443,0.0225,-0.0069,-0.0218,-0.0386,-0.0415,-0.0426,-0.0438,-0.0398,-0.0415,-0.0412,-0.0441,-0.0441,-0.0441,-0.0441,-0.0441,0.0311,0.0349,0.0407,0.0478,0.0543,0.0642,0.0712,0.0785,0.0871,0.094,0.0879,0.0842,0.0564,0.02,-0.0073,-0.0355,-0.0359,-0.0456,-0.0457,-0.0457,-0.0445,-0.0408,-0.0447,-0.0448,-0.0448,-0.0448,-0.0448,0,0.0349,0.0404,0.0477,0.0576,0.0669,0.0692,0.0818,0.0901,0.1021,0.1067,0.1091,0.0856,0.0584,0.0276,-0.0145,-0.0403,-0.0434,-0.0471,-0.0461,-0.0462,-0.0462,-0.0451,-0.0455,-0.0456,-0.0456,-0.0457,0,0,0.0374,0.046,0.0509,0.0673,0.0749,0.0896,0.0979,0.1097,0.1171,0.1234,0.1214,0.1112,0.0708,0.0409,0.004,-0.0202,-0.0262,-0.0242,-0.0209,-0.0153,-0.015,-0.0428,-0.0406,0,0,0,0,0]}],[{"header":{"parameterUnit":"m.s-1","parameterCategory":2,"la1":30.2991,"la2":30.254,"lo1":-89.0895,"lo2":-89.0444,"dy":0.0017,"dx":0.0017,"nx":28,"ny":28,"refTime":"2024-04-02T21:00:00:Z","depth":"4","parameterNumber":2,"parameterNumberName":"U-component_of_CURRENTS"},"data":[0,0,0,0,0,0,0,0,0,0,0,0,0,0,0,0,0,0,0,0,0,0,0,0,0,0,0,0,0,0,0,0,0,0,0,0,0,0,0,0,0,0,0,0,0,0,0,0,0,0,0,0,0,0,0,0,0,0,0.0541,0.0543,0,0.0624,0.0625,0.0625,0.066,0.0661,0.0662,0.0662,0.0746,0.0747,0.0749,0,0,0,0,0,0,0,0,0,0,0,0,0,0.0454,0.0455,0.0541,0.0543,0.0545,0.0624,0.0625,0.0625,0.066,0.0661,0.0662,0.0662,0.0745,0.0747,0.0749,0,0,0,0,0,0,0,0,0,0,0,0,0,0.0502,0.0455,0.0541,0.0578,0.0582,0.0624,0.0625,0.0625,0.066,0.0661,0.0662,0.0663,0.0744,0.0747,0.0749,0.0747,0,0,0.0757,0.0758,0,0,0,0,0,0,0,0,0.05,0.0504,0.0571,0.0575,0.0581,0.064,0.0625,0.0669,0.066,0.0622,0.0662,0.0663,0.0715,0.072,0.0722,0.0751,0.0755,0.0757,0.0759,0.076,0.076,0,0,0,0,0,0,0,0.0496,0.0502,0.0566,0.0573,0.0579,0.0605,0.0612,0.0633,0.0656,0.0626,0.063,0.0652,0.0717,0.0719,0.0725,0.0756,0.0757,0.0759,0.0761,0.0762,0.0857,0.0858,0,0,0,0,0,0,0.0499,0.0498,0.0564,0.0569,0.0551,0.0606,0.0613,0.0614,0.0656,0.0666,0.0651,0.0654,0.0715,0.0721,0.0728,0.0803,0.076,0.0762,0.0764,0.0856,0.0857,0.0859,0,0,0,0,0,0,0.0496,0.0503,0.056,0.0543,0.0554,0.0607,0.0607,0.0615,0.0647,0.0677,0.0685,0.068,0.0716,0.0724,0.0778,0.0804,0.0763,0.0766,0.0855,0.0857,0.0858,0.0906,0,0,0,0,0,0,0.0493,0.0501,0.0515,0.0543,0.0555,0.0595,0.0608,0.0616,0.0661,0.0666,0.0704,0.0711,0.0717,0.0774,0.0781,0.0806,0.0767,0.0854,0.0856,0.0857,0.0903,0.0909,0.0914,0,0,0,0,0,0.0489,0.0503,0.0514,0.0524,0.0567,0.0596,0.0604,0.064,0.0662,0.0672,0.0713,0.0711,0.079,0.0778,0.0785,0.0812,0.0853,0.0855,0.0857,0.09,0.0907,0.0913,0,0,0,0,0,0,0.0473,0.0509,0.0522,0.0547,0.0576,0.0606,0.0632,0.0655,0.0693,0.0711,0.0731,0.0741,0.0793,0.0797,0.0782,0.0843,0.0818,0.0822,0.0849,0.0855,0.0861,0.0852,0.077,0,0,0,0,0,0.0476,0.0497,0.0529,0.0552,0.0566,0.0602,0.0627,0.0652,0.0688,0.0707,0.0739,0.0772,0.0801,0.0826,0.0846,0.0887,0.0897,0.0906,0.0912,0.0916,0.0913,0.0951,0.096,0.0866,0.0866,0.0866,0,0,0.0475,0.0504,0.0514,0.0552,0.0576,0.0608,0.0617,0.066,0.0698,0.071,0.0775,0.0794,0.0815,0.0859,0.0882,0.0873,0.0953,0.0919,0.0923,0.0917,0.0955,0.0964,0.0972,0.0868,0.0867,0.0867,0,0,0.0488,0.0507,0.0529,0.0557,0.0611,0.0632,0.065,0.0694,0.0723,0.0783,0.0799,0.0837,0.0889,0.0904,0.0919,0.0966,0.0976,0.0976,0.1005,0.1043,0.1051,0.1058,0.1101,0.1112,0.0984,0.0984,0.0984,0,0.0497,0.0522,0.0541,0.0577,0.0612,0.0645,0.068,0.0711,0.0774,0.08,0.0812,0.0891,0.0906,0.0956,0.097,0.0978,0.1006,0.0981,0.1051,0.1058,0.1064,0.1106,0.1117,0.0987,0.0986,0.0986,0.0986,0,0.0519,0.0554,0.0571,0.0624,0.0656,0.0694,0.0738,0.0777,0.0822,0.0855,0.0919,0.0945,0.0992,0.0999,0.1003,0.1056,0.1065,0.105,0.1034,0.1076,0.1119,0.1129,0.099,0.0989,0.0989,0.0988,0,0,0.0506,0.0574,0.0584,0.0616,0.0688,0.0712,0.0775,0.0829,0.0879,0.093,0.0991,0.1029,0.1048,0.1064,0.1075,0.1101,0.1173,0.1101,0.1102,0.1145,0.1275,0.1216,0.1222,0.1181,0.1182,0.1184,0.1293,0,0.0525,0.0587,0.0622,0.0686,0.0717,0.0768,0.0821,0.0879,0.0935,0.1,0.1029,0.1092,0.1074,0.1112,0.1135,0.1164,0.12,0.1145,0.1226,0.1228,0.1171,0.1231,0.1189,0.1301,0.1303,0.1305,0.1306,0,0.0539,0.0579,0.0638,0.0715,0.0734,0.0785,0.0871,0.0927,0.1013,0.1058,0.112,0.1156,0.1213,0.1189,0.1264,0.1238,0.1262,0.1273,0.1278,0.1208,0.1188,0.1245,0.1325,0.1324,0.1322,0.1321,0.132,0,0.0512,0.0594,0.0641,0.0669,0.0756,0.0802,0.086,0.0949,0.1008,0.1111,0.1171,0.1233,0.1291,0.1321,0.1351,0.1327,0.1426,0.1397,0.1367,0.1364,0.1362,0.1353,0.145,0.1449,0.1449,0.1449,0.1449,0,0.0515,0.0558,0.0636,0.0662,0.0731,0.0798,0.0884,0.0953,0.1059,0.1137,0.1208,0.1277,0.1329,0.1389,0.1394,0.142,0.1471,0.1384,0.139,0.1382,0.1374,0.1371,0.136,0.1453,0.1452,0.1451,0.1451,0,0.0483,0.0537,0.0595,0.0686,0.0724,0.0776,0.0906,0.0965,0.1073,0.1184,0.1228,0.134,0.1423,0.1464,0.1525,0.1483,0.1503,0.1498,0.1509,0.1512,0.1409,0.14,0.1484,0.1483,0.1482,0.1481,0.148,0,0.0475,0.0499,0.0598,0.0643,0.0695,0.0782,0.0847,0.0965,0.1042,0.1212,0.1267,0.139,0.1452,0.1498,0.1529,0.1558,0.153,0.1535,0.1442,0.1416,0.1414,0.1406,0.1398,0.1479,0.1479,0.1478,0.1478,0,0.045,0.049,0.0529,0.062,0.0699,0.0775,0.0889,0.0937,0.108,0.1176,0.1291,0.1346,0.1439,0.1473,0.1511,0.1515,0.1523,0.1524,0.1525,0.1437,0.1411,0.1408,0.1401,0.1475,0.1475,0.1476,0.1476,0,0.0431,0.0451,0.0513,0.06,0.0687,0.077,0.0822,0.0929,0.1015,0.1201,0.1229,0.1348,0.1436,0.1455,0.1484,0.1493,0.1464,0.1402,0.1408,0.1413,0.1333,0.1286,0.133,0,0,0,0,0,0.0414,0.0442,0.0499,0.0593,0.0677,0.0741,0.0858,0.091,0.1039,0.1101,0.117,0.1252,0.1319,0.137,0.1366,0.1446,0.146,0.1434,0.1388,0.1456,0.146,0.137,0,0,0,0,0,0,0.0402,0.0445,0.048,0.058,0.0641,0.0738,0.0808,0.0889,0.0935,0.1056,0.1098,0.1186,0.1262,0.1314,0.1345,0.136,0.131,0.1502,0.1499,0.1454,0.1458,0.1461,0.137,0,0,0,0,0]},{"header":{"parameterUnit":"m.s-1","parameterCategory":2,"la1":30.2991,"la2":30.254,"lo1":-89.0895,"lo2":-89.0444,"dy":0.0017,"dx":0.0017,"nx":28,"ny":28,"refTime":"2024-04-02T21:00:00:Z","depth":"4","parameterNumber":3,"parameterNumberName":"V-component_of_CURRENTS"},"data":[0,0,0,0,0,0,0,0,0,0,0,0,0,0,0,0,0,0,0,0,0,0,0,0,0,0,0,0,0,0,0,0,0,0,0,0,0,0,0,0,0,0,0,0,0,0,0,0,0,0,0,0,0,0,0,0,0,0,0.0196,0.0196,0,0.0125,0.0124,0.0123,0.0079,0.0079,0.0079,0.0079,-0.0057,-0.006,-0.0064,0,0,0,0,0,0,0,0,0,0,0,0,0,0.0228,0.0228,0.0196,0.0196,0.0195,0.0125,0.0124,0.0122,0.0079,0.0079,0.0079,0.0079,-0.0056,-0.006,-0.0064,0,0,0,0,0,0,0,0,0,0,0,0,0,0.019,0.0228,0.0196,0.0166,0.0163,0.0125,0.0123,0.0122,0.0079,0.0079,0.0079,0.0079,-0.0054,-0.006,-0.0065,-0.0097,0,0,-0.0081,-0.0084,0,0,0,0,0,0,0,0,0.0192,0.0189,0.0171,0.0168,0.0164,0.0112,0.0085,0.0046,0.0079,0.0109,0.0079,0.0079,-0.0005,-0.0014,-0.0029,-0.0103,-0.0109,-0.0082,-0.0085,-0.0087,-0.0089,0,0,0,0,0,0,0,0.0195,0.0191,0.0166,0.0171,0.0166,0.0133,0.0128,0.0077,0.0051,0.0107,0.0104,0.0099,-0.0008,-0.0024,-0.0033,-0.0111,-0.0082,-0.0086,-0.009,-0.0092,-0.024,-0.024,0,0,0,0,0,0,0.0211,0.0194,0.0168,0.0164,0.018,0.0133,0.0127,0.0128,0.0053,0.0042,0.0099,0.0097,-0.0015,-0.0027,-0.0038,-0.0097,-0.0087,-0.0092,-0.0095,-0.0239,-0.024,-0.024,0,0,0,0,0,0,0.0212,0.021,0.0171,0.0178,0.0171,0.0133,0.0134,0.0126,0.0103,0.0048,0.0036,0.0082,-0.0015,-0.0031,-0.0097,-0.0102,-0.0095,-0.01,-0.0238,-0.0239,-0.024,-0.0204,0,0,0,0,0,0,0.0213,0.0211,0.021,0.018,0.0172,0.0146,0.0134,0.0125,0.0101,0.0097,0.0029,0.0017,-0.0017,-0.0089,-0.0102,-0.0109,-0.0104,-0.0237,-0.0238,-0.024,-0.0205,-0.0204,-0.0204,0,0,0,0,0,0.0215,0.0219,0.0211,0.0207,0.0175,0.0146,0.0138,0.0109,0.01,0.0087,0.0036,0.0019,-0.0106,-0.0094,-0.011,-0.0118,-0.0236,-0.0238,-0.024,-0.0205,-0.0204,-0.0204,0,0,0,0,0,0,0.023,0.0214,0.0205,0.0203,0.0175,0.0139,0.0127,0.0107,0.0057,0.0051,-0.0,-0.0017,-0.0074,-0.0105,-0.0091,-0.0165,-0.017,-0.0175,-0.0139,-0.0139,-0.0138,-0.0113,-0.0108,0,0,0,0,0,0.0235,0.0234,0.0208,0.0203,0.0194,0.0159,0.0142,0.0121,0.0079,0.0058,0.001,-0.0042,-0.0091,-0.0122,-0.0171,-0.0219,-0.0236,-0.0232,-0.0231,-0.023,-0.0221,-0.0255,-0.0256,-0.0246,-0.0246,-0.0246,0,0,0.0241,0.023,0.0229,0.0206,0.0184,0.0166,0.0148,0.0124,0.0102,0.0049,-0.0001,-0.0047,-0.0105,-0.0156,-0.0183,-0.0184,-0.0244,-0.0232,-0.0231,-0.0222,-0.0257,-0.0258,-0.0258,-0.0247,-0.0247,-0.0246,0,0,0.0248,0.0241,0.024,0.022,0.019,0.0167,0.0161,0.012,0.0097,0.0043,0.0004,-0.0045,-0.0126,-0.0162,-0.0191,-0.0219,-0.0241,-0.0234,-0.0212,-0.0246,-0.0246,-0.0247,-0.027,-0.0273,-0.0232,-0.0232,-0.0232,0,0.025,0.0249,0.0232,0.022,0.0208,0.0171,0.016,0.0129,0.0067,0.0051,0.003,-0.0074,-0.0125,-0.0175,-0.0184,-0.0216,-0.0234,-0.0207,-0.0243,-0.0244,-0.0245,-0.0268,-0.0272,-0.0231,-0.0231,-0.0231,-0.0231,0,0.0253,0.0248,0.0246,0.0223,0.0204,0.0189,0.0153,0.0126,0.0094,0.0063,0.0007,-0.0062,-0.0116,-0.0143,-0.0176,-0.021,-0.022,-0.0237,-0.0238,-0.0244,-0.0268,-0.0273,-0.0228,-0.0229,-0.0229,-0.023,0,0,0.0263,0.0252,0.0249,0.0249,0.0208,0.0197,0.0165,0.0133,0.0123,0.0058,0.0039,-0.0049,-0.0073,-0.0107,-0.0153,-0.0185,-0.0217,-0.0211,-0.0213,-0.022,-0.0283,-0.0274,-0.0278,-0.0239,-0.024,-0.0241,-0.0296,0,0.0266,0.0265,0.0251,0.0243,0.0241,0.0209,0.0188,0.0153,0.0117,0.0086,0.0025,-0.0017,-0.0063,-0.0085,-0.0127,-0.0197,-0.0228,-0.02,-0.0287,-0.0289,-0.027,-0.0283,-0.0243,-0.0299,-0.03,-0.0301,-0.0301,0,0.0267,0.0269,0.0272,0.0271,0.0269,0.0257,0.0237,0.0213,0.0164,0.0138,0.0091,0.0042,-0.0021,-0.0055,-0.0165,-0.0145,-0.0206,-0.0258,-0.0262,-0.0265,-0.0288,-0.0295,-0.031,-0.0309,-0.0309,-0.0308,-0.0307,0,0.0287,0.0284,0.0295,0.029,0.0277,0.0278,0.0268,0.023,0.0225,0.0176,0.0168,0.0084,0.0044,-0.0045,-0.0158,-0.0161,-0.0272,-0.0292,-0.0339,-0.0339,-0.0345,-0.0344,-0.0359,-0.0359,-0.0358,-0.0358,-0.0358,0,0.0293,0.0301,0.0312,0.0315,0.0336,0.0314,0.0324,0.0303,0.0281,0.028,0.0204,0.0181,0.0044,-0.0039,-0.0139,-0.0251,-0.026,-0.0332,-0.0353,-0.033,-0.0327,-0.0348,-0.0346,-0.036,-0.036,-0.036,-0.0359,0,0.0301,0.0307,0.0327,0.0338,0.0346,0.036,0.0373,0.0378,0.0354,0.0351,0.0342,0.0251,0.014,0.0007,-0.0145,-0.0221,-0.0332,-0.0368,-0.0324,-0.0342,-0.0379,-0.0375,-0.0421,-0.0421,-0.0421,-0.0421,-0.0422,0,0.0303,0.0314,0.0352,0.0375,0.0382,0.0404,0.0419,0.0413,0.0423,0.0392,0.0395,0.0297,0.022,0.0026,-0.0126,-0.0309,-0.0337,-0.0388,-0.0392,-0.0369,-0.0386,-0.0382,-0.0377,-0.0422,-0.0422,-0.0422,-0.0422,0,0.0305,0.0325,0.0346,0.0396,0.0427,0.0465,0.049,0.0507,0.0498,0.0484,0.0446,0.0337,0.0211,0.004,-0.0104,-0.0238,-0.0352,-0.0389,-0.039,-0.0395,-0.0371,-0.0386,-0.0382,-0.0422,-0.0422,-0.0422,-0.0422,0,0.0309,0.0331,0.0367,0.0411,0.046,0.0507,0.0521,0.0534,0.0545,0.0518,0.0502,0.0362,0.0275,0.0076,-0.0058,-0.0188,-0.0224,-0.026,-0.0268,-0.0269,-0.0215,-0.0162,-0.0163,0,0,0,0,0,0.0306,0.0333,0.0376,0.0432,0.0484,0.0521,0.0558,0.0566,0.0567,0.0555,0.0534,0.042,0.0217,0.0121,-0.0006,-0.0076,-0.0258,-0.023,-0.0306,-0.0425,-0.0424,-0.0386,0,0,0,0,0,0,0.0302,0.0342,0.0371,0.0441,0.0489,0.0551,0.0584,0.0589,0.0581,0.0563,0.0457,0.0402,0.0201,0.0299,-0.0,-0.0044,-0.0107,-0.0328,-0.0331,-0.0425,-0.0424,-0.0424,-0.0385,0,0,0,0,0]}]]